THA828 VTBS-VTSP

Flight info

Callsign THA828
Flight time 1h 3m
Altitude 38000
Route VANKO1F VANKO Y8 SAVSA SAVSA1C
Aircraft B77W/H-SDE1E2E3FGHIJ2J3J4J5M1RWXY/LB1D1

Departure

Time 2026-05-04 11:27
Airport Suvarnabhumi Airport (VTBS)

Arrival

Time 2026-05-04 12:30
Airport Phuket International Airport (VTSP)
Time Latitude Longitude Altitude Speed Heading
2026-05-04 11:13 13.69076 100.75674 14 ft 0 kts 194°
2026-05-04 11:19 13.69078 100.75674 14 ft 4 kts 194°
2026-05-04 11:19 13.69096 100.75678 13 ft 2 kts 194°
2026-05-04 11:20 13.69111 100.75682 14 ft 2 kts 194°
2026-05-04 11:20 13.69122 100.75685 14 ft 2 kts 192°
2026-05-04 11:20 13.69136 100.75685 14 ft 2 kts 162°
2026-05-04 11:20 13.69149 100.75678 14 ft 2 kts 139°
2026-05-04 11:22 13.69139 100.75751 14 ft 24 kts 108°
2026-05-04 11:22 13.68995 100.75785 13 ft 25 kts 195°
2026-05-04 11:23 13.68802 100.75730 13 ft 34 kts 196°
2026-05-04 11:23 13.68538 100.75655 14 ft 35 kts 200°
2026-05-04 11:24 13.68687 100.74058 14 ft 30 kts 197°
2026-05-04 11:25 13.68417 100.73975 14 ft 51 kts 195°
2026-05-04 11:25 13.67996 100.73870 14 ft 71 kts 193°
2026-05-04 11:25 13.67565 100.73753 14 ft 23 kts 217°
2026-05-04 11:26 13.67625 100.73589 14 ft 25 kts 357°
2026-05-04 11:27 13.76759 100.75377 4079 ft 256 kts 341°
2026-05-04 11:28 13.78272 100.74237 4660 ft 274 kts 305°
2026-05-04 11:28 13.78875 100.72349 5485 ft 280 kts 270°
2026-05-04 11:28 13.78344 100.70396 6311 ft 284 kts 236°
2026-05-04 11:28 13.76961 100.68957 7109 ft 286 kts 218°
2026-05-04 11:29 13.75394 100.67698 7935 ft 289 kts 217°
2026-05-04 11:29 13.73793 100.66433 8743 ft 293 kts 216°
2026-05-04 11:29 13.72174 100.65155 9515 ft 297 kts 216°
2026-05-04 11:29 13.70457 100.63799 10292 ft 302 kts 217°
2026-05-04 11:31 13.56444 100.52753 14259 ft 409 kts 217°
2026-05-04 11:33 13.39748 100.39602 20405 ft 449 kts 218°
2026-05-04 11:33 13.37236 100.37625 21200 ft 454 kts 218°
2026-05-04 11:33 13.34702 100.35632 21949 ft 459 kts 218°
2026-05-04 11:34 13.32164 100.33636 22664 ft 465 kts 218°
2026-05-04 11:34 13.29569 100.31596 23440 ft 469 kts 218°
2026-05-04 11:34 13.26980 100.29560 24195 ft 473 kts 218°
2026-05-04 11:34 13.24387 100.27522 24910 ft 477 kts 218°
2026-05-04 11:35 13.21739 100.25442 25614 ft 482 kts 218°
2026-05-04 11:35 13.19068 100.23344 26324 ft 486 kts 218°
2026-05-04 11:35 13.16344 100.21205 27042 ft 490 kts 219°
2026-05-04 11:35 13.13635 100.19079 27714 ft 494 kts 219°
2026-05-04 11:36 13.10896 100.16930 28406 ft 498 kts 219°
2026-05-04 11:36 13.08116 100.14748 29092 ft 502 kts 219°
2026-05-04 11:36 13.05349 100.12578 29896 ft 503 kts 219°
2026-05-04 11:36 13.02579 100.10407 30821 ft 500 kts 219°
2026-05-04 11:37 12.99831 100.08253 31792 ft 496 kts 219°
2026-05-04 11:37 12.97101 100.06114 32671 ft 493 kts 219°
2026-05-04 11:37 12.94369 100.03974 33551 ft 492 kts 219°
2026-05-04 11:37 12.91670 100.01861 34461 ft 490 kts 219°
2026-05-04 11:38 12.88928 99.99715 35507 ft 485 kts 219°
2026-05-04 11:38 12.86119 99.97517 36572 ft 478 kts 219°
2026-05-04 11:38 12.83507 99.95474 37344 ft 476 kts 219°
2026-05-04 11:38 12.80846 99.93393 37823 ft 477 kts 219°
2026-05-04 11:39 12.75470 99.89188 37826 ft 476 kts 219°
2026-05-04 11:40 12.59095 99.77562 37831 ft 482 kts 202°
2026-05-04 11:41 12.55868 99.76584 37837 ft 483 kts 193°
2026-05-04 11:41 12.49097 99.76052 37853 ft 485 kts 181°
2026-05-04 11:42 12.42339 99.76055 37846 ft 485 kts 181°
2026-05-04 11:42 12.35532 99.76063 37845 ft 484 kts 181°
2026-05-04 11:43 12.28769 99.76070 37840 ft 485 kts 181°
2026-05-04 11:43 12.22021 99.76076 37840 ft 485 kts 181°
2026-05-04 11:44 12.15261 99.76082 37827 ft 486 kts 181°
2026-05-04 11:44 12.08462 99.76089 37830 ft 485 kts 181°
2026-05-04 11:45 12.01730 99.76095 37829 ft 485 kts 181°
2026-05-04 11:45 11.94916 99.76101 37814 ft 484 kts 181°
2026-05-04 11:46 11.88178 99.76107 37815 ft 484 kts 181°
2026-05-04 11:46 11.81387 99.76113 37816 ft 486 kts 181°
2026-05-04 11:47 11.74629 99.76119 37813 ft 486 kts 181°
2026-05-04 11:47 11.67818 99.76126 37815 ft 478 kts 181°
2026-05-04 11:47 11.64560 99.76131 37823 ft 462 kts 181°
2026-05-04 11:48 11.61368 99.76135 37821 ft 446 kts 181°
2026-05-04 11:48 11.58322 99.76138 37817 ft 434 kts 181°
2026-05-04 11:48 11.55277 99.76141 37829 ft 436 kts 181°
2026-05-04 11:49 11.49159 99.76147 37820 ft 438 kts 181°
2026-05-04 11:49 11.43051 99.76153 37822 ft 438 kts 181°
2026-05-04 11:50 11.36948 99.76159 37826 ft 439 kts 181°
2026-05-04 11:50 11.30834 99.76166 37824 ft 439 kts 181°
2026-05-04 11:51 11.24684 99.76172 37824 ft 439 kts 181°
2026-05-04 11:51 11.18543 99.76179 37828 ft 439 kts 181°
2026-05-04 11:52 11.12444 99.75580 37824 ft 437 kts 195°
2026-05-04 11:52 11.06623 99.73824 37828 ft 437 kts 198°
2026-05-04 11:53 11.00780 99.71986 37828 ft 437 kts 198°
2026-05-04 11:53 10.94995 99.70171 37828 ft 437 kts 198°
2026-05-04 11:55 10.71586 99.62842 37832 ft 437 kts 198°
2026-05-04 11:56 10.65787 99.61028 37834 ft 437 kts 198°
2026-05-04 11:56 10.59960 99.59207 37835 ft 438 kts 198°
2026-05-04 11:57 10.54059 99.57364 37835 ft 444 kts 198°
2026-05-04 11:57 10.48257 99.55552 37823 ft 424 kts 198°
2026-05-04 11:57 10.45468 99.54682 37819 ft 409 kts 198°
2026-05-04 11:58 10.42776 99.53842 37831 ft 407 kts 198°
2026-05-04 11:58 10.37282 99.52126 37829 ft 410 kts 198°
2026-05-04 11:59 10.31843 99.50429 37832 ft 408 kts 198°
2026-05-04 11:59 10.26409 99.48735 37830 ft 411 kts 198°
2026-05-04 12:00 10.20909 99.47021 37835 ft 411 kts 198°
2026-05-04 12:00 10.15420 99.45310 37839 ft 412 kts 198°
2026-05-04 12:01 10.09946 99.43605 37845 ft 411 kts 198°
2026-05-04 12:02 9.90718 99.37621 37841 ft 409 kts 198°
2026-05-04 12:03 9.85188 99.35901 37845 ft 409 kts 198°
2026-05-04 12:03 9.79605 99.34165 37854 ft 409 kts 198°
2026-05-04 12:04 9.74053 99.32440 37818 ft 402 kts 198°
2026-05-04 12:04 9.71353 99.31602 37236 ft 401 kts 198°
2026-05-04 12:04 9.68607 99.30748 36249 ft 408 kts 198°
2026-05-04 12:05 9.65836 99.29887 35349 ft 412 kts 198°
2026-05-04 12:05 9.63012 99.29010 34589 ft 414 kts 198°
2026-05-04 12:05 9.60223 99.28144 33881 ft 414 kts 198°
2026-05-04 12:05 9.57428 99.27277 33110 ft 416 kts 198°
2026-05-04 12:06 9.54602 99.26399 32318 ft 420 kts 197°
2026-05-04 12:06 9.51721 99.25506 31526 ft 424 kts 197°
2026-05-04 12:06 9.48850 99.24614 30808 ft 426 kts 197°
2026-05-04 12:06 9.45978 99.23721 30127 ft 428 kts 197°
2026-05-04 12:07 9.43108 99.22830 29457 ft 429 kts 197°
2026-05-04 12:07 9.40234 99.21938 28769 ft 431 kts 197°
2026-05-04 12:07 9.37369 99.21049 28083 ft 433 kts 196°
2026-05-04 12:07 9.34469 99.20149 27410 ft 434 kts 196°
2026-05-04 12:08 9.31565 99.19247 26747 ft 436 kts 196°
2026-05-04 12:08 9.28676 99.18351 26083 ft 437 kts 196°
2026-05-04 12:08 9.25780 99.17452 25393 ft 438 kts 196°
2026-05-04 12:08 9.22836 99.16540 24699 ft 440 kts 195°
2026-05-04 12:09 9.19907 99.15631 23982 ft 441 kts 195°
2026-05-04 12:09 9.16985 99.14726 23265 ft 442 kts 195°
2026-05-04 12:09 9.14094 99.13650 22513 ft 445 kts 204°
2026-05-04 12:09 9.11366 99.12087 21738 ft 449 kts 213°
2026-05-04 12:10 9.08915 99.10187 21102 ft 447 kts 218°
2026-05-04 12:10 9.06499 99.08206 20628 ft 441 kts 218°
2026-05-04 12:10 9.04116 99.06248 20153 ft 436 kts 218°
2026-05-04 12:10 9.01774 99.04325 19619 ft 433 kts 218°
2026-05-04 12:11 8.99407 99.02384 19069 ft 430 kts 218°
2026-05-04 12:11 8.97088 99.00483 18493 ft 428 kts 218°
2026-05-04 12:11 8.94748 98.98566 17935 ft 425 kts 218°
2026-05-04 12:11 8.92466 98.96697 17400 ft 422 kts 218°
2026-05-04 12:12 8.90169 98.94816 16839 ft 419 kts 218°
2026-05-04 12:12 8.87843 98.92912 16263 ft 416 kts 218°
2026-05-04 12:12 8.85415 98.90925 15670 ft 413 kts 218°
2026-05-04 12:12 8.83068 98.89004 15105 ft 409 kts 218°
2026-05-04 12:13 8.80795 98.87145 14536 ft 406 kts 218°
2026-05-04 12:14 8.65757 98.74895 10815 ft 385 kts 217°
2026-05-04 12:15 8.63669 98.73201 10279 ft 383 kts 217°
2026-05-04 12:15 8.61555 98.71484 9889 ft 375 kts 217°
2026-05-04 12:15 8.59522 98.69832 9748 ft 360 kts 217°
2026-05-04 12:15 8.57607 98.68276 9661 ft 346 kts 217°
2026-05-04 12:16 8.55707 98.66731 9608 ft 330 kts 217°
2026-05-04 12:16 8.53882 98.65248 9592 ft 315 kts 217°
2026-05-04 12:16 8.52206 98.63887 9588 ft 300 kts 217°
2026-05-04 12:16 8.50664 98.62506 9575 ft 287 kts 229°
2026-05-04 12:17 8.49536 98.60861 9528 ft 276 kts 237°
2026-05-04 12:17 8.48560 98.59196 9313 ft 272 kts 239°
2026-05-04 12:17 8.47587 98.57498 8984 ft 273 kts 239°
2026-05-04 12:17 8.46614 98.55802 8713 ft 271 kts 239°
2026-05-04 12:18 8.45652 98.54129 8449 ft 269 kts 239°
2026-05-04 12:18 8.44698 98.52472 8128 ft 270 kts 238°
2026-05-04 12:18 8.43694 98.50729 7449 ft 286 kts 238°
2026-05-04 12:18 8.42668 98.48947 7085 ft 287 kts 239°
2026-05-04 12:19 8.41636 98.47154 6794 ft 285 kts 239°
2026-05-04 12:19 8.40612 98.45375 6487 ft 284 kts 239°
2026-05-04 12:19 8.39601 98.43619 6205 ft 282 kts 239°
2026-05-04 12:19 8.38605 98.41890 5921 ft 280 kts 239°
2026-05-04 12:20 8.37620 98.40179 5643 ft 279 kts 239°
2026-05-04 12:20 8.36628 98.38457 5360 ft 277 kts 239°
2026-05-04 12:20 8.35650 98.36760 5068 ft 276 kts 239°
2026-05-04 12:20 8.34692 98.35099 4819 ft 273 kts 239°
2026-05-04 12:21 8.33689 98.33357 4513 ft 272 kts 239°
2026-05-04 12:21 8.32715 98.31669 4234 ft 271 kts 239°
2026-05-04 12:21 8.31734 98.29966 3952 ft 269 kts 239°
2026-05-04 12:21 8.30769 98.28293 3912 ft 267 kts 239°
2026-05-04 12:22 8.29771 98.26563 3950 ft 292 kts 239°
2026-05-04 12:22 8.28712 98.24728 3945 ft 301 kts 239°
2026-05-04 12:22 8.28210 98.23857 3940 ft 300 kts 239°
2026-05-04 12:22 8.27085 98.21905 3937 ft 295 kts 239°
2026-05-04 12:23 8.26077 98.20157 3925 ft 280 kts 239°
2026-05-04 12:23 8.25109 98.18478 3873 ft 268 kts 239°
2026-05-04 12:23 8.24171 98.16853 3844 ft 267 kts 239°
2026-05-04 12:23 8.23191 98.15157 3827 ft 268 kts 239°
2026-05-04 12:24 8.22224 98.13481 3818 ft 268 kts 239°
2026-05-04 12:24 8.21232 98.11763 3804 ft 269 kts 239°
2026-05-04 12:24 8.20138 98.10094 3759 ft 269 kts 224°
2026-05-04 12:24 8.18552 98.09074 3628 ft 262 kts 195°
2026-05-04 12:25 8.16740 98.08926 3457 ft 248 kts 167°
2026-05-04 12:25 8.15083 98.09444 3306 ft 239 kts 161°
2026-05-04 12:25 8.13444 98.09803 3147 ft 234 kts 169°
2026-05-04 12:25 8.11867 98.10128 2986 ft 225 kts 153°
2026-05-04 12:26 8.10670 98.11074 2831 ft 211 kts 129°
2026-05-04 12:26 8.09911 98.12266 2719 ft 196 kts 107°
2026-05-04 12:26 8.09709 98.13589 2491 ft 188 kts 91°
2026-05-04 12:26 8.09755 98.14883 2310 ft 180 kts 85°
2026-05-04 12:27 8.09865 98.16130 2162 ft 175 kts 85°
2026-05-04 12:27 8.09981 98.17372 2016 ft 177 kts 85°
2026-05-04 12:27 8.10099 98.18637 1872 ft 178 kts 85°
2026-05-04 12:27 8.10215 98.19894 1726 ft 178 kts 85°
2026-05-04 12:28 8.10331 98.21145 1574 ft 179 kts 85°
2026-05-04 12:28 8.10449 98.22416 1420 ft 181 kts 85°
2026-05-04 12:28 8.10571 98.23711 1157 ft 180 kts 85°
2026-05-04 12:28 8.10691 98.24973 905 ft 178 kts 85°
2026-05-04 12:29 8.10810 98.26241 652 ft 175 kts 85°
2026-05-04 12:29 8.10923 98.27434 413 ft 158 kts 85°
2026-05-04 12:29 8.11027 98.28530 214 ft 151 kts 85°
2026-05-04 12:29 8.11124 98.29591 68 ft 146 kts 86°
2026-05-04 12:30 8.11212 98.30551 42 ft 126 kts 86°
2026-05-04 12:30 8.11281 98.31288 48 ft 87 kts 85°
2026-05-04 12:30 8.11352 98.31976 83 ft 119 kts 85°
2026-05-04 12:30 8.11335 98.32400 86 ft 22 kts 121°
2026-05-04 12:31 8.11271 98.32421 86 ft 13 kts 216°
2026-05-04 12:31 8.11244 98.32316 86 ft 15 kts 266°
2026-05-04 12:31 8.11232 98.32206 86 ft 15 kts 263°